Preview of NWS' New Version of Forecast
This preview is not operational and should not be used for support decisions.

Regional Weather Roundup (RWR)

Issued by National Weather Service (NWS)

                            
000
ASUS42 KTBW 180818
RWRFL 
FLORIDA REGIONAL WEATHER ROUNDUP
NATIONAL WEATHER SERVICE TAMPA BAY RUSKIN FL
400 AM EDT THU JUL 18 2019

NOTE: "FAIR" INDICATES FEW OR NO CLOUDS BELOW 12,000 FEET WITH NO
SIGNIFICANT WEATHER AND/OR OBSTRUCTIONS TO VISIBILITY.

FLZ001>010-012>015-112-114-115-180900-
PANHANDLE FLORIDA
  
CITY           SKY/WX    TMP DP  RH WIND       PRES   REMARKS
PENSACOLA      FAIR      79  79 100 NW3       30.06F                  
PENSACOLA NAS  FAIR      76  76 100 NW3       30.05F                  
MILTON NAS     FAIR      75  75 100 W3        30.07F                  
CRESTVIEW      FAIR      79  74  84 W3        30.08F                  
DUKE FIELD     FAIR      78  76  91 CALM      30.06                   
VALPARAISO     FAIR      78  75  90 CALM      30.06                   
MARY ESTHER    PTCLDY    78  75  92 CALM      30.05F                  
TRI COUNTY     MOCLDY    78  76  93 SW3       30.08S                  
PANAMA CITY    FAIR      78  75  90 NW3       30.05F                  
TYNDALL AFB    FAIR      83  76  81 W5        30.05F                  
APALACHICOLA   FAIR      77  74  90 CALM      30.06F                  

STATION/POSITION SKY/WX   TEMP    WIND        PRES    WAVE   SWELL
                          AIR SEA DIR/SP/G            HT/PER HT/PER
                          (F)     (DEG/KT/KT) (MB)    (FT/S) (FT/S)
30.1N   87.6W              85 86  250/  8/ 10 1017.9F   1/ 6   2/ 6
29.2N   88.2W              84 85  190/  4/  6 1018.0F   1/ 6   2/ 6
28.8N   86.0W              85 87  200/  2/  4 1017.4F   1/ 5   2/ 5
PANAMA CITY BEAC           85 87  260/  8/  9 1018.3F
TOWER C                    84     270/  2/  2 1018.0F
28.5N   84.5W              85      10/  2/  4 1018.0F   1

$$
FLZ011-016>038-118-127-128-134-139-239-180900-
NORTH FLORIDA
  
CITY           SKY/WX    TMP DP  RH WIND       PRES   REMARKS
MARIANNA       FAIR      79  76  90 CALM      30.06S                  
TALLAHASSEE    FAIR      77  76  96 CALM      30.06F                  
PERRY          FAIR      73  73  97 CALM      30.08F                  
LIVE OAK       MOCLDY    72  72 100 CALM      30.07F                  
CROSS CITY     FAIR      71  71  98 CALM      30.07F                  
LAKE CITY      FAIR      70  68  94 CALM      30.08F                  
GAINESVILLE    FAIR      70  32  24 MISG      30.10F                  
WILLISTON        N/A    N/A N/A N/A MISG        N/A                   
PALATKA        MOCLDY    72  72 100 CALM      30.08F                  
MAYPORT NAS    FAIR      78  74  87 W8        30.07F                  
JACKSONVILLE   MOCLDY    72  70  93 W3        30.07F                  
JAX NAS        MOCLDY    77  71  82 CALM      30.08S                  
JAX CECIL      FAIR      72  70  94 CALM      30.08S                  
FERNANDINA BEA FAIR      75  72  91 W3        30.07F                  
ST AUGUSTINE   FAIR      75  73  93 S5        30.08F                  
PALM COAST     FAIR      73  72  96 CALM      30.08F                  

STATION/POSITION SKY/WX   TEMP    WIND        PRES    WAVE   SWELL
                          AIR SEA DIR/SP/G            HT/PER HT/PER
                          (F)     (DEG/KT/KT) (MB)    (FT/S) (FT/S)
SHELL POINT      NOT AVBL
KEATON BEACH               75      40/  3/  3 1018.1F
CEDAR KEY                  80      70/  5/  5 1018.1F
FERNANDINA                 80 86  220/  1/  4 1019.0F
30.7N   81.3W                 83                N/A     1/10
MAYPORT                    77 83  210/  3/  4 1018.5F
31.4N   80.9W              81 85  250/ 12/ 16 1018.1S   2/ 8   2/ 8
ST AUGUSTINE               76 77  320/  2/  3 1018.7F

$$
FLZ040-043>046-052-053-057-058-063-144-180900-
INTERIOR CENTRAL FLORIDA
  
CITY           SKY/WX    TMP DP  RH WIND       PRES   REMARKS
OCALA          FAIR      71  70  96 N3        30.09S                  
LEESBURG       FAIR      75  72  90 N5        30.09R                  
SANFORD        FAIR      75  73  93 NW6       30.07S                  
ORLANDO EXEC   FAIR      77  73  87 N3        30.07R                  
ORLANDO INTL   FAIR      76  72  87 NW3       30.07S                  
KISSIMMEE      FAIR      75  73  93 CALM      30.08S                  
WINTER HAVEN   FAIR      75  72  90 CALM      30.08S                  
BARTOW           N/A     72  72 100 NE3       30.06F                  
SEBRING        FAIR      73  72  96 N3        30.06S                  
OKEECHOBEE     FAIR      73  72  94 E3        30.05F                  

$$
FLZ041-047-054-059-064-141-147-180900-
EAST CENTRAL FLORIDA
  
CITY           SKY/WX    TMP DP  RH WIND       PRES   REMARKS
DAYTONA BEACH  FAIR      75  75 100 CALM      30.08R                  
DELAND         FAIR      73  72  94 CALM      30.08S                  
JFK SPACE CTR  CLEAR     74  64  71 N5        30.05F                  
CAPE CANAVERAL CLEAR     76  51  41 CALM      30.05S                  
PATRICK AFB    FAIR      80  79  96 CALM      30.05                   
MELBOURNE      FAIR      78  73  84 CALM      30.05S                  
VERO BEACH     FAIR      78  73  84 S3        30.05F                  
FT PIERCE      FAIR      72  69  90 CALM      30.04F                  
STUART         FAIR      77  72  83 CALM      30.06F                  

STATION/POSITION SKY/WX   TEMP    WIND        PRES    WAVE   SWELL
                          AIR SEA DIR/SP/G            HT/PER HT/PER
                          (F)     (DEG/KT/KT) (MB)    (FT/S) (FT/S)
28.5N   80.2W              83 83  160/  8/ 10 1017.6F   1/ 8   2/ 8
28.9N   78.5W              84 86  150/ 10/ 14   N/A     2/ 8   2/ 8
TRIDENT PIER               80 85  190/  2/  3 1019.2F
28.4N   80.5W                 83                N/A     1/ 7
27.5N   80.2W                 83                N/A     1/10

$$
FLZ050-056-061-142-242-148-248-149-249-151-251-155-255-
160-260-180900-
WEST CENTRAL FLORIDA
  
CITY           SKY/WX    TMP DP  RH WIND       PRES   REMARKS
CRYSTAL RIVER  FAIR      72  70  94 CALM      30.08S                  
INVERNESS      FAIR      70  70 100 CALM      30.09R FOG              
BROOKSVILLE    FAIR      72  71  97 NE3       30.08S                  
CLEARWATER AIR FAIR      73  72  94 CALM      30.06S                  
ST PETE CLEARW FAIR      75  73  93 NE3       30.06F                  
TAMPA INTL     MOCLDY    77  73  87 CALM      30.07F                  
TAMPA EXEC     FAIR      72  72 100 E3        30.08S                  
PLANT CITY     MOCLDY   N/A N/A N/A MISG      30.10R                  
MACDILL AFB    FAIR      74  72  93 CALM      30.06F                  
PETER O KNIGHT CLOUDY   N/A N/A N/A NE3       30.08R                  
ST PETERSBURG  FAIR      79  73  82 NE3       30.05S                  
SARASOTA       FAIR      73  71  93 E6        30.04F                  
VENICE         FAIR      75  72  88 NE9       30.06S                  

STATION/POSITION SKY/WX   TEMP    WIND        PRES    WAVE   SWELL
                          AIR SEA DIR/SP/G            HT/PER HT/PER
                          (F)     (DEG/KT/KT) (MB)    (FT/S) (FT/S)
27.3N   84.2W                 87                N/A     2/ 5
CLEARWATER BEACH           79 88   30/  5/  7 1018.3R
MIDDLE TAMPA BAY           81      90/  6/  6 1018.3F
VENICE                     74 86   50/  7/  8 1017.6F

$$
FLZ066-069-070-075>078-162-262-165-265-180900-
SOUTHWEST FLORIDA AND KEYS
  
CITY           SKY/WX    TMP DP  RH WIND       PRES   REMARKS
PUNTA GORDA    FAIR      74  74 100 NE5       30.07R                  
FT MYERS       FAIR      76  72  87 SE9       30.03F                  
SOUTHWEST INTL FAIR      76  72  87 SE7       30.04F                  
MARCO ISLAND   FAIR      75  73  93 MISG      30.05F                  
IMMOKALEE      MOCLDY    73  72  94 S3        30.03F                  
MARATHON       MOCLDY    84  76  76 E5        30.04F                  
KEY WEST NAS   FAIR      85  75  72 SE12      30.04F                  
KEY WEST INTL  FAIR      84  75  74 E13       30.04F                  

STATION/POSITION SKY/WX   TEMP    WIND        PRES    WAVE   SWELL
                          AIR SEA DIR/SP/G            HT/PER HT/PER
                          (F)     (DEG/KT/KT) (MB)    (FT/S) (FT/S)
NAPLES                     78 88              1017.5F
26.0N   85.6W              84 85   90/ 10/ 12 1017.3F   2/ 6   2/ 6
DRY TORTUGAS               85     110/ 10/ 11 1016.9F
SAND KEY                   84     110/ 14/ 16 1016.0
SOMBRERO KEY               84     110/ 12/ 14 1017.5
LONG KEY                   85                 1016.7

$$
FLZ067-068-071>074-168-172>174-180900-
SOUTHEAST FLORIDA 
  
CITY           SKY/WX    TMP DP  RH WIND       PRES   REMARKS
W PALM BEACH   FAIR      82  74  76 SE10      30.05F                  
FT LAUDER-EXEC FAIR      83  75  77 E8        30.04F                  
FT LAUDERDALE  FAIR      84  75  74 E9        30.04F                  
POMPANO BEACH  FAIR      84  74  71 E8        30.04F                  
PEMBROKE PINES FAIR      83  74  74 E5        30.05F                  
OPA LOCKA      FAIR      82  75  79 E5        30.05F                  
MIAMI          FAIR      84  74  71 E9        30.05F                  
WEST KENDALL   FAIR      77  75  93 CALM      30.05F THUNDER          
HOMESTEAD      FAIR      83  76  80 E3        30.04F                  

STATION/POSITION SKY/WX   TEMP    WIND        PRES    WAVE   SWELL
                          AIR SEA DIR/SP/G            HT/PER HT/PER
                          (F)     (DEG/KT/KT) (MB)    (FT/S) (FT/S)
PORT EVERGLADES            85      90/  4/  9 1017.4
VIRGINIA KEY               85 89   80/  9/ 12 1017.2F
LAKE WORTH                 84 85  120/  9/ 10 1018.7F
FOWEY ROCKS                85 86  110/ 13/ 14 1017.8F
SETTLEMENT POINT           81     140/  6/  8 1018.1F

$$